TimeCDT,TemperatureF,Dew PointF,Humidity,Sea Level PressureIn,VisibilityMPH,Wind Direction,Wind SpeedMPH,Gust SpeedMPH,PrecipitationIn,Events,Conditions,WindDirDegrees,DateUTC
12:15 AM,29.3,25.3,85,30.33,10.0,Calm,Calm,-,N/A,,Clear,0,2012-10-05 05:15:00
12:35 AM,28.0,24.4,86,30.33,10.0,Calm,Calm,-,N/A,,Clear,0,2012-10-05 05:35:00
12:55 AM,27.5,24.4,88,30.33,10.0,Calm,Calm,-,N/A,,Clear,0,2012-10-05 05:55:00
1:15 AM,28.2,24.8,87,30.32,10.0,Calm,Calm,-,N/A,,Clear,0,2012-10-05 06:15:00
1:35 AM,27.5,24.4,88,30.32,10.0,Calm,Calm,-,N/A,,Clear,0,2012-10-05 06:35:00
1:55 AM,26.6,23.4,88,30.31,10.0,Calm,Calm,-,N/A,,Clear,0,2012-10-05 06:55:00
2:15 AM,26.6,23.9,90,30.31,10.0,Calm,Calm,-,N/A,,Clear,0,2012-10-05 07:15:00
2:35 AM,27.9,24.6,88,30.31,10.0,Calm,Calm,-,N/A,,Clear,0,2012-10-05 07:35:00
2:55 AM,27.1,23.9,88,30.31,10.0,Calm,Calm,-,N/A,,Clear,0,2012-10-05 07:55:00
3:15 AM,25.2,22.8,91,30.31,10.0,Calm,Calm,-,N/A,,Clear,0,2012-10-05 08:15:00
3:35 AM,24.8,22.3,90,30.31,10.0,Calm,Calm,-,N/A,,Clear,0,2012-10-05 08:35:00
3:55 AM,26.6,24.3,91,30.30,10.0,Calm,Calm,-,N/A,,Clear,0,2012-10-05 08:55:00
4:15 AM,26.8,24.3,90,30.30,10.0,SSW,3.5,-,N/A,,Clear,200,2012-10-05 09:15:00
4:35 AM,27.5,25.0,90,30.30,10.0,SSW,3.5,-,N/A,,Clear,200,2012-10-05 09:35:00
4:55 AM,28.9,26.2,90,30.30,10.0,SSW,5.8,-,N/A,,Clear,210,2012-10-05 09:55:00
5:15 AM,29.8,26.4,87,30.29,10.0,SW,4.6,-,N/A,,Clear,220,2012-10-05 10:15:00
5:35 AM,31.1,27.3,86,30.30,10.0,SW,3.5,-,N/A,,Clear,230,2012-10-05 10:35:00
5:55 AM,29.3,26.6,90,30.30,10.0,SW,3.5,-,N/A,,Clear,220,2012-10-05 10:55:00
6:15 AM,27.7,24.6,88,30.30,10.0,Calm,Calm,-,N/A,,Clear,0,2012-10-05 11:15:00
6:35 AM,30.0,27.3,90,30.30,10.0,WNW,3.5,-,N/A,,Clear,300,2012-10-05 11:35:00
6:55 AM,28.6,26.1,90,30.30,10.0,NW,4.6,-,N/A,,Clear,310,2012-10-05 11:55:00
7:15 AM,32.2,28.4,86,30.31,10.0,NW,8.1,-,N/A,,Clear,310,2012-10-05 12:15:00
7:35 AM,32.5,28.2,84,30.31,10.0,WNW,4.6,-,N/A,,Scattered Clouds,300,2012-10-05 12:35:00
7:55 AM,32.0,27.9,85,30.32,10.0,WNW,3.5,-,N/A,,Clear,290,2012-10-05 12:55:00
8:15 AM,34.0,28.9,82,30.32,10.0,WNW,3.5,-,N/A,,Clear,290,2012-10-05 13:15:00
8:35 AM,34.9,28.6,78,30.33,10.0,WSW,5.8,-,N/A,,Clear,250,2012-10-05 13:35:00
8:55 AM,35.8,29.1,77,30.33,10.0,West,5.8,-,N/A,,Clear,280,2012-10-05 13:55:00
9:15 AM,37.4,28.8,71,30.33,10.0,NW,8.1,-,N/A,,Scattered Clouds,310,2012-10-05 14:15:00
9:35 AM,38.5,28.4,67,30.34,10.0,WNW,8.1,-,N/A,,Scattered Clouds,300,2012-10-05 14:35:00
9:55 AM,38.8,28.2,66,30.34,10.0,NW,9.2,-,N/A,,Scattered Clouds,320,2012-10-05 14:55:00
10:15 AM,38.7,28.4,67,30.35,10.0,NW,9.2,-,N/A,,Mostly Cloudy,310,2012-10-05 15:15:00
10:35 AM,39.0,28.6,66,30.34,10.0,NW,10.4,-,N/A,,Mostly Cloudy,320,2012-10-05 15:35:00
10:55 AM,39.2,28.6,66,30.34,10.0,NW,10.4,-,N/A,,Scattered Clouds,310,2012-10-05 15:55:00
11:35 AM,41.0,28.8,62,30.36,10.0,WNW,15.0,-,N/A,,Clear,300,2012-10-05 16:35:00
11:55 AM,41.4,28.4,60,30.35,10.0,NW,11.5,18.4,N/A,,Clear,310,2012-10-05 16:55:00
12:15 PM,42.1,27.9,57,30.35,10.0,NW,15.0,19.6,N/A,,Clear,310,2012-10-05 17:15:00
12:35 PM,43.5,27.7,54,30.35,10.0,NW,15.0,-,N/A,,Clear,320,2012-10-05 17:35:00
12:55 PM,44.2,26.6,50,30.34,10.0,WNW,13.8,19.6,N/A,,Clear,300,2012-10-05 17:55:00
1:35 PM,46.6,26.8,46,30.32,10.0,NW,11.5,23.0,N/A,,Scattered Clouds,310,2012-10-05 18:35:00
1:55 PM,47.7,24.3,40,30.31,10.0,NW,15.0,25.3,N/A,,Scattered Clouds,320,2012-10-05 18:55:00
2:15 PM,48.9,23.9,38,30.30,10.0,NW,16.1,20.7,N/A,,Clear,320,2012-10-05 19:15:00
2:35 PM,50.2,23.9,36,30.28,10.0,NW,15.0,23.0,N/A,,Clear,320,2012-10-05 19:35:00
2:55 PM,50.9,24.4,36,30.28,10.0,NNW,10.4,18.4,N/A,,Clear,340,2012-10-05 19:55:00
3:15 PM,51.6,23.9,34,30.27,10.0,NNW,17.3,21.9,N/A,,Clear,340,2012-10-05 20:15:00
3:35 PM,52.0,24.3,34,30.26,10.0,NW,17.3,23.0,N/A,,Clear,320,2012-10-05 20:35:00
3:55 PM,52.0,24.6,35,30.25,10.0,NNW,12.7,21.9,N/A,,Clear,330,2012-10-05 20:55:00
4:15 PM,52.5,24.6,34,30.25,10.0,NW,17.3,24.2,N/A,,Clear,320,2012-10-05 21:15:00
4:35 PM,51.8,24.4,34,30.25,10.0,NNW,19.6,24.2,N/A,,Clear,330,2012-10-05 21:35:00
4:55 PM,51.6,24.3,34,30.25,10.0,NNW,15.0,21.9,N/A,,Clear,330,2012-10-05 21:55:00
5:15 PM,51.8,24.3,34,30.25,10.0,NNW,17.3,-,N/A,,Clear,330,2012-10-05 22:15:00
5:35 PM,51.4,24.3,35,30.25,10.0,NNW,15.0,19.6,N/A,,Clear,330,2012-10-05 22:35:00
5:55 PM,50.7,23.9,35,30.25,10.0,NNW,16.1,23.0,N/A,,Clear,330,2012-10-05 22:55:00
6:15 PM,50.0,23.5,36,30.26,10.0,NW,12.7,-,N/A,,Clear,320,2012-10-05 23:15:00
6:35 PM,48.9,22.6,36,30.26,10.0,NW,11.5,19.6,N/A,,Clear,320,2012-10-05 23:35:00
6:55 PM,46.9,22.1,38,30.27,10.0,NW,11.5,-,N/A,,Clear,320,2012-10-05 23:55:00
7:15 PM,45.3,22.1,40,30.27,10.0,NW,8.1,-,N/A,,Clear,320,2012-10-06 00:15:00
7:35 PM,43.3,22.3,43,30.27,10.0,NW,6.9,-,N/A,,Clear,320,2012-10-06 00:35:00
7:55 PM,40.6,21.7,47,30.28,10.0,NW,5.8,-,N/A,,Clear,310,2012-10-06 00:55:00
8:15 PM,40.1,21.7,48,30.28,10.0,WNW,5.8,-,N/A,,Clear,300,2012-10-06 01:15:00
8:35 PM,38.3,21.4,51,30.29,10.0,NW,5.8,-,N/A,,Clear,310,2012-10-06 01:35:00
8:55 PM,37.4,21.2,52,30.29,10.0,WNW,6.9,-,N/A,,Clear,300,2012-10-06 01:55:00
9:15 PM,36.9,21.7,54,30.29,10.0,NW,5.8,-,N/A,,Clear,310,2012-10-06 02:15:00
9:35 PM,36.5,21.7,55,30.30,10.0,NW,5.8,-,N/A,,Clear,310,2012-10-06 02:35:00
9:55 PM,33.8,20.5,58,30.30,10.0,NW,3.5,-,N/A,,Clear,310,2012-10-06 02:55:00
10:35 PM,32.2,20.1,61,30.31,10.0,Calm,Calm,-,N/A,,Clear,0,2012-10-06 03:35:00
10:55 PM,30.4,19.8,65,30.31,10.0,Calm,Calm,-,N/A,,Clear,0,2012-10-06 03:55:00
11:15 PM,29.8,19.6,66,30.32,10.0,Calm,Calm,-,N/A,,Clear,0,2012-10-06 04:15:00
11:35 PM,30.2,19.8,65,30.32,10.0,NW,4.6,-,N/A,,Clear,320,2012-10-06 04:35:00
11:55 PM,32.5,20.3,61,30.33,10.0,NW,9.2,-,N/A,,Clear,320,2012-10-06 04:55:00